Location: Diebersbach
(48.5163°N, 8.0558°E)
Time: 22:29:14
(UTC+00:00)

USA 229 - Pass Details

Date: 31 October 2021
Orbit: 946 x 1266 km, 63.4° (Epoch: 25 November)

Event Time Altitude Azimuth Distance (km) Brightness Sun altitude
Rises 19:36:25 0° 279° (W) 3,737 7.6 -34.4°
Reaches altitude 10° 19:39:27 10° 292° (WNW) 2,833 6.7 -34.9°
Maximum altitude 19:44:57 26° 347° (NNW) 1,990 5.3 -35.8°
Enters shadow 19:46:29 24° 7° (N) 2,095 5.3 -36.0°
